GW3154 Weather Reports


Display with metric or nautical units.
time (UTC)temp
F
wind
direction
speed
MPH
gust
MPH
rain 1hr
in
rain 24hr
in
rain mn
in
humidity
%
barometer
mb
20260505153031 56 186 0.0 0.0 0.00 0.00 0.00 86 1017.7
20260505151530 56 216 0.0 0.0 0.00 0.00 0.00 88 1017.7
20260505124457 54 267 0.0 0.0 0.00 0.00 0.00 91 1016.6
20260505122958 54 286 0.0 0.0 0.00 0.00 0.00 91 1016.5
20260505121454 54 204 0.0 0.0 0.00 0.00 0.00 91 1016.5
20260505115952 54 203 0.0 0.0 0.00 0.00 0.00 91 1016.3
20260505114448 54 204 0.0 0.0 0.00 0.00 0.00 91 1016.4
20260505112943 54 239 1.0 1.0 0.00 0.00 0.00 91 1016.3
20260505111443 54 187 0.0 0.0 0.00 0.00 0.00 90 1016.3
20260505101432 54 180 1.0 1.0 0.00 0.00 0.00 91 1016.0
20260505095932 54 198 0.0 0.0 0.00 0.00 0.00 92 1016.0
20260505094429 54 178 1.0 1.0 0.00 0.00 0.00 92 1015.9
20260505092925 54 170 1.0 2.0 0.00 0.00 0.00 91 1015.8
20260505091423 54 196 0.0 1.0 0.00 0.00 0.00 92 1015.7
20260505085922 54 186 0.0 1.0 0.00 0.00 0.00 91 1015.6
20260505084421 54 187 0.0 1.0 0.00 0.00 0.00 92 1015.8
20260505082918 53 182 1.0 1.0 0.00 0.00 0.00 92 1015.6
20260505081414 53 171 1.0 1.0 0.00 0.00 0.00 92 1015.5
20260505075914 53 221 0.0 0.0 0.00 0.00 0.00 93 1015.4
20260505074411 52 225 0.0 0.0 0.00 0.00 0.00 93 1015.6
20260505072909 52 218 0.0 0.0 0.00 0.00 0.00 94 1015.3
20260505071404 52 178 1.0 2.0 0.00 0.00 0.00 94 1015.4
20260505065859 52 178 1.0 1.0 0.00 0.00 0.00 93 1015.2
20260505064356 53 198 0.0 1.0 0.00 0.00 0.00 92 1015.1
20260505062852 53 237 0.0 0.0 0.00 0.00 0.00 90 1014.8
20260505061350 54 180 0.0 0.0 0.00 0.00 0.00 88 1014.8
20260505055846 55 175 2.0 2.0 0.00 0.00 0.00 87 1015.0
20260505054342 55 182 0.0 1.0 0.00 0.00 0.00 87 1014.9
20260505052840 56 171 1.0 1.0 0.00 0.00 0.00 86 1014.9
20260505051337 56 177 2.0 3.0 0.00 0.00 0.00 85 1014.8
20260505041330 59 187 0.0 0.0 0.00 0.00 0.00 83 1014.0
20260505035827 59 245 1.0 1.0 0.00 0.00 0.00 82 1013.8
20260505034328 60 256 1.0 1.0 0.00 0.00 0.00 81 1013.6
20260505032826 61 219 1.0 1.0 0.00 0.00 0.00 80 1013.2
20260505031321 62 176 0.0 1.0 0.00 0.00 0.00 78 1013.1
20260505025821 64 212 1.0 1.0 0.00 0.00 0.00 75 1012.7
20260505024321 66 209 0.0 0.0 0.00 0.00 0.00 72 1012.5
20260505022818 67 231 1.0 1.0 0.00 0.00 0.00 70 1012.3
20260505021314 68 214 1.0 2.0 0.00 0.00 0.00 69 1012.3
20260505015809 69 238 1.0 1.0 0.00 0.00 0.00 67 1012.3
20260505014307 71 239 1.0 2.0 0.00 0.00 0.00 67 1012.4
20260505012804 71 163 0.0 1.0 0.00 0.00 0.00 66 1012.2
20260505011300 75 269 0.0 0.0 0.00 0.00 0.00 62 1012.1
20260505005800 75 184 0.0 0.0 0.00 0.00 0.00 61 1012.2
20260505004256 74 173 0.0 0.0 0.00 0.00 0.00 63 1012.4
20260505002753 74 241 2.0 3.0 0.00 0.00 0.00 63 1012.4
20260505001251 75 177 6.0 9.0 0.00 0.00 0.00 61 1012.6
20260504235748 74 196 1.0 1.0 0.00 0.00 0.00 65 1012.6
20260504234245 73 179 3.0 3.0 0.00 0.00 0.00 64 1012.9
20260504232746 73 173 1.0 1.0 0.00 0.00 0.00 64 1013.0
20260504231242 72 160 3.0 5.0 0.00 0.00 0.00 66 1013.0
20260504225741 71 234 1.0 1.0 0.00 0.00 0.00 68 1013.4
20260504224237 71 187 1.0 1.0 0.00 0.00 0.00 67 1013.3
20260504222732 69 195 2.0 3.0 0.00 0.00 0.00 69 1013.6
20260504221229 70 210 0.0 1.0 0.00 0.00 0.00 68 1013.7
20260504215725 69 191 0.0 1.0 0.00 0.00 0.00 69 1014.0
20260504214221 69 222 2.0 3.0 0.00 0.00 0.00 69 1014.1
20260504212717 69 233 2.0 3.0 0.00 0.00 0.00 70 1014.3
20260504211212 67 138 0.0 0.0 0.00 0.00 0.00 71 1014.5
20260504205710 66 190 0.0 1.0 0.00 0.00 0.00 73 1014.5
20260504204210 66 180 2.0 2.0 0.00 0.00 0.00 70 1014.8
20260504202705 66 200 5.0 7.0 0.00 0.00 0.00 72 1014.9
20260504201203 65 202 2.0 3.0 0.00 0.00 0.00 74 1014.9
20260504195659 66 204 3.0 3.0 0.00 0.00 0.00 74 1015.0
20260504194159 64 247 1.0 2.0 0.00 0.00 0.00 77 1015.1
20260504192658 63 171 1.0 2.0 0.00 0.00 0.00 75 1015.2
20260504191155 61 171 5.0 6.0 0.00 0.00 0.00 77 1015.5
20260504185651 60 177 3.0 5.0 0.00 0.00 0.00 81 1015.5
20260504184150 59 210 2.0 3.0 0.00 0.00 0.00 82 1015.4
20260504182648 59 203 4.0 5.0 0.00 0.00 0.00 82 1015.5
20260504181146 59 195 4.0 6.0 0.00 0.00 0.00 83 1015.4
20260504175646 58 192 2.0 3.0 0.00 0.00 0.00 83 1015.3
20260504174143 58 190 3.0 5.0 0.00 0.00 0.00 84 1015.5
20260504172640 58 162 6.0 10.0 0.00 0.00 0.00 84 1015.3
20260504171136 57 190 6.0 9.0 0.00 0.00 0.00 85 1015.3